Location: Heisede
(52.2582°N, 9.8523°E)
Time: 00:32:33
(UTC+00:00)

Cosmos 1484 Rocket - Pass Details

Date: 13 January 2026
Orbit: 439 x 467 km, 97.6° (Epoch: 9 February)

Event Time Altitude Azimuth Distance (km) Brightness Sun altitude
Rises 06:18:25 0° 4° (N) 2,449 5.9 -9.7°
Reaches altitude 10° 06:20:41 10° 350° (N) 1,577 4.8 -9.4°
Maximum altitude 06:23:27 24° 295° (WNW) 971 3.5 -9.0°
Drops below altitude 10° 06:26:13 10° 239° (WSW) 1,577 4.8 -8.6°
Sets 06:28:29 0° 226° (SW) 2,450 5.9 -8.3°
